SPKAS EPZP-EPZP

Flight info

Callsign SPKAS
Flight time 0h 30m
Altitude 3000
Route DCT
Aircraft P208/L-SY/C

Departure

Time 2026-04-19 16:56
Airport Zielona Góra-Przylep Airfield (EPZP)

Arrival

Time 2026-04-19 17:26
Airport Zielona Góra-Przylep Airfield (EPZP)
Time Latitude Longitude Altitude Speed Heading
2026-04-19 16:55 51.89582 15.76726 2731 ft 103 kts 95°
2026-04-19 16:56 51.89519 15.77871 2829 ft 101 kts 95°
2026-04-19 16:56 51.89464 15.78872 2922 ft 100 kts 95°
2026-04-19 16:56 51.89402 15.80031 2992 ft 104 kts 95°
2026-04-19 16:56 51.89335 15.81222 2996 ft 108 kts 95°
2026-04-19 16:57 51.89269 15.82444 2999 ft 109 kts 95°
2026-04-19 16:57 51.89203 15.83639 3002 ft 110 kts 95°
2026-04-19 16:57 51.89137 15.84864 3004 ft 110 kts 95°
2026-04-19 16:57 51.89076 15.86037 3008 ft 110 kts 95°
2026-04-19 16:58 51.89010 15.87271 3006 ft 109 kts 95°
2026-04-19 16:58 51.88947 15.88458 2999 ft 105 kts 95°
2026-04-19 16:58 51.88779 15.89574 3021 ft 99 kts 118°
2026-04-19 16:58 51.88528 15.90569 3082 ft 96 kts 101°
2026-04-19 16:59 51.88478 15.91653 3078 ft 97 kts 95°
2026-04-19 16:59 51.88421 15.92794 3088 ft 105 kts 95°
2026-04-19 16:59 51.88360 15.93992 3099 ft 108 kts 95°
2026-04-19 16:59 51.88272 15.95207 3101 ft 109 kts 100°
2026-04-19 17:00 51.88197 15.96433 3097 ft 110 kts 94°
2026-04-19 17:00 51.88137 15.97665 3099 ft 110 kts 95°
2026-04-19 17:00 51.88079 15.98901 3098 ft 110 kts 95°
2026-04-19 17:00 51.88019 16.00135 3098 ft 110 kts 95°
2026-04-19 17:01 51.87960 16.01371 3096 ft 106 kts 95°
2026-04-19 17:01 51.87906 16.02521 3091 ft 108 kts 94°
2026-04-19 17:01 51.87848 16.03762 3095 ft 109 kts 95°
2026-04-19 17:01 51.88083 16.04804 3122 ft 104 kts 30°
2026-04-19 17:02 51.88671 16.04443 3091 ft 104 kts 302°
2026-04-19 17:02 51.89113 16.03410 2844 ft 120 kts 304°
2026-04-19 17:02 51.89581 16.02301 2697 ft 117 kts 303°
2026-04-19 17:02 51.89991 16.01260 2529 ft 119 kts 298°
2026-04-19 17:03 51.90412 16.00098 2364 ft 116 kts 304°
2026-04-19 17:03 51.90926 15.99127 2278 ft 112 kts 310°
2026-04-19 17:03 51.91491 15.98261 2187 ft 113 kts 322°
2026-04-19 17:03 51.92157 15.97524 1961 ft 117 kts 316°
2026-04-19 17:04 51.92356 15.96377 1999 ft 101 kts 258°
2026-04-19 17:04 51.91836 15.96256 1917 ft 110 kts 121°
2026-04-19 17:04 51.91395 15.97267 1838 ft 112 kts 132°
2026-04-19 17:04 51.90778 15.98053 1696 ft 118 kts 147°
2026-04-19 17:05 51.90111 15.98848 1533 ft 119 kts 144°
2026-04-19 17:05 51.89466 15.99612 1526 ft 111 kts 144°
2026-04-19 17:05 51.88825 16.00268 1548 ft 106 kts 141°
2026-04-19 17:05 51.88301 16.01123 1540 ft 107 kts 124°
2026-04-19 17:06 51.87853 16.02131 1458 ft 112 kts 123°
2026-04-19 17:06 51.87726 16.03274 1523 ft 104 kts 71°
2026-04-19 17:06 51.88236 16.03912 1633 ft 96 kts
2026-04-19 17:06 51.88894 16.03598 1549 ft 105 kts 306°
2026-04-19 17:07 51.88722 16.02528 1289 ft 118 kts 210°
2026-04-19 17:07 51.88019 16.02015 1339 ft 107 kts 205°
2026-04-19 17:07 51.87412 16.01420 1408 ft 99 kts 237°
2026-04-19 17:07 51.87457 16.00351 1458 ft 100 kts 293°
2026-04-19 17:08 51.87641 15.99673 1519 ft 98 kts 292°
2026-04-19 17:08 51.87896 15.98671 1638 ft 96 kts 292°
2026-04-19 17:08 51.88150 15.97677 1765 ft 94 kts 292°
2026-04-19 17:08 51.88403 15.96699 1881 ft 94 kts 292°
2026-04-19 17:09 51.88628 15.95835 1980 ft 94 kts 293°
2026-04-19 17:09 51.88654 15.95737 1992 ft 94 kts 293°
2026-04-19 17:09 51.88968 15.94565 2137 ft 94 kts 293°
2026-04-19 17:09 51.89231 15.93595 2247 ft 95 kts 294°
2026-04-19 17:10 51.89500 15.92622 2354 ft 95 kts 294°
2026-04-19 17:10 51.89819 15.91690 2454 ft 95 kts 304°
2026-04-19 17:10 51.90145 15.90761 2547 ft 95 kts 291°
2026-04-19 17:10 51.90387 15.89833 2649 ft 95 kts 293°
2026-04-19 17:11 51.90653 15.88833 2756 ft 95 kts 293°
2026-04-19 17:11 51.90916 15.87846 2863 ft 95 kts 293°
2026-04-19 17:11 51.91175 15.86874 2982 ft 93 kts 293°
2026-04-19 17:11 51.91430 15.85905 3057 ft 99 kts 293°
2026-04-19 17:12 51.91711 15.84854 3056 ft 104 kts 293°
2026-04-19 17:12 51.91998 15.83768 3058 ft 106 kts 293°
2026-04-19 17:12 51.92219 15.82644 3056 ft 104 kts 278°
2026-04-19 17:12 51.92319 15.81534 3047 ft 93 kts 279°
2026-04-19 17:13 51.92424 15.80439 3047 ft 102 kts 278°
2026-04-19 17:13 51.92534 15.79289 3054 ft 104 kts 278°
2026-04-19 17:13 51.92643 15.78124 3060 ft 105 kts 279°
2026-04-19 17:13 51.92754 15.76946 3058 ft 106 kts 278°
2026-04-19 17:14 51.92866 15.75763 3057 ft 106 kts 278°
2026-04-19 17:14 51.92976 15.74581 3058 ft 106 kts 278°
2026-04-19 17:14 51.93085 15.73403 3053 ft 101 kts 278°
2026-04-19 17:14 51.93184 15.72340 3041 ft 94 kts 278°
2026-04-19 17:15 51.93279 15.71295 3041 ft 93 kts 278°
2026-04-19 17:15 51.93373 15.70258 3044 ft 100 kts 278°
2026-04-19 17:15 51.93477 15.69109 3055 ft 104 kts 278°
2026-04-19 17:15 51.93578 15.67985 3061 ft 105 kts 278°
2026-04-19 17:16 51.93594 15.67807 3058 ft 106 kts 278°
2026-04-19 17:16 51.93700 15.66626 3056 ft 106 kts 278°
2026-04-19 17:16 51.93806 15.65447 3058 ft 106 kts 278°
2026-04-19 17:16 51.93912 15.64263 3057 ft 106 kts 278°
2026-04-19 17:17 51.94017 15.63081 3057 ft 106 kts 278°
2026-04-19 17:17 51.94121 15.61899 3057 ft 106 kts 278°
2026-04-19 17:17 51.94225 15.60715 3058 ft 106 kts 278°
2026-04-19 17:17 51.94329 15.59533 3058 ft 106 kts 278°
2026-04-19 17:18 51.94431 15.58351 3057 ft 106 kts 278°
2026-04-19 17:18 51.94533 15.57167 3057 ft 106 kts 278°
2026-04-19 17:18 51.94636 15.55983 3058 ft 106 kts 278°
2026-04-19 17:18 51.94877 15.54863 3056 ft 106 kts 293°
2026-04-19 17:19 51.94950 15.54580 3055 ft 106 kts 292°
2026-04-19 17:19 51.95223 15.53487 3054 ft 106 kts 292°
2026-04-19 17:19 51.95501 15.52377 3055 ft 106 kts 291°
2026-04-19 17:19 51.95773 15.51264 3051 ft 106 kts 289°
2026-04-19 17:20 51.96285 15.50432 2841 ft 113 kts 334°
2026-04-19 17:20 51.97068 15.50299 2354 ft 115 kts
2026-04-19 17:20 51.97784 15.49996 1888 ft 99 kts 336°
2026-04-19 17:20 51.98401 15.49561 1480 ft 94 kts 335°
2026-04-19 17:21 51.98648 15.48774 1136 ft 86 kts 245°
2026-04-19 17:21 51.98354 15.47836 546 ft 93 kts 242°
2026-04-19 17:21 51.98113 15.47033 271 ft 69 kts 243°
2026-04-19 17:21 51.97932 15.46462 246 ft 56 kts 244°
2026-04-19 17:22 51.97744 15.45782 364 ft 69 kts 245°
2026-04-19 17:22 51.97494 15.45054 509 ft 79 kts 239°
2026-04-19 17:22 51.97496 15.44287 637 ft 85 kts 326°
2026-04-19 17:22 51.98007 15.43775 765 ft 89 kts 329°
2026-04-19 17:23 51.98559 15.43405 885 ft 88 kts 18°
2026-04-19 17:23 51.98923 15.44240 983 ft 92 kts 57°
2026-04-19 17:23 51.99208 15.45169 1117 ft 93 kts 65°
2026-04-19 17:23 51.99490 15.46176 1132 ft 105 kts 65°
2026-04-19 17:24 51.99558 15.46419 1121 ft 107 kts 65°
2026-04-19 17:25 51.99830 15.47325 1154 ft 105 kts 59°
2026-04-19 17:25 51.99617 15.48272 1190 ft 104 kts 160°
2026-04-19 17:25 51.98998 15.48692 1101 ft 83 kts 156°
2026-04-19 17:25 51.98596 15.48396 846 ft 77 kts 238°
2026-04-19 17:26 51.98307 15.47586 487 ft 86 kts 243°
2026-04-19 17:26 51.98045 15.46775 256 ft 71 kts 242°
2026-04-19 17:26 51.97872 15.46267 248 ft 21 kts 235°
2026-04-19 17:26 51.97733 15.46227 250 ft 22 kts 170°
2026-04-19 17:27 51.97681 15.46249 251 ft 0 kts 141°
2026-04-19 17:27 51.97679 15.46254 251 ft 4 kts 141°
2026-04-19 17:27 51.97629 15.46323 256 ft 8 kts 133°
2026-04-19 17:27 51.97597 15.46399 256 ft 7 kts 119°
2026-04-19 17:28 51.97584 15.46446 256 ft 0 kts 71°
2026-04-19 17:28 51.97593 15.46456 256 ft 2 kts 13°
2026-04-19 17:28 51.97595 15.46447 256 ft 0 kts 278°
2026-04-19 17:39 51.97608 15.46387 255 ft 12 kts 300°
2026-04-19 17:40 51.97649 15.46297 256 ft 12 kts 307°
2026-04-19 17:40 51.97698 15.46213 250 ft 16 kts 328°
2026-04-19 17:40 51.97793 15.46288 251 ft 24 kts 57°
2026-04-19 17:40 51.97911 15.46648 249 ft 45 kts 62°
2026-04-19 17:41 51.98009 15.46891 249 ft 23 kts 24°
2026-04-19 17:41 51.98071 15.46847 249 ft 0 kts 244°
2026-04-19 17:43 51.98009 15.46640 244 ft 45 kts 246°
2026-04-19 17:43 51.97894 15.46164 291 ft 65 kts 249°
2026-04-19 17:44 51.97657 15.45456 421 ft 76 kts 239°
2026-04-19 17:44 51.97390 15.44685 611 ft 78 kts 251°
2026-04-19 17:44 51.97484 15.43894 848 ft 73 kts 317°
2026-04-19 17:44 51.97997 15.43518 922 ft 89 kts 336°
2026-04-19 17:45 51.98551 15.43178 1117 ft 84 kts 338°
2026-04-19 17:45 51.98970 15.43636 1202 ft 91 kts 58°
2026-04-19 17:45 51.99322 15.44592 1245 ft 100 kts 58°
2026-04-19 17:45 51.99685 15.45587 1222 ft 109 kts 59°
2026-04-19 17:46 52.00089 15.46641 1187 ft 113 kts 58°
2026-04-19 17:46 52.00072 15.47604 1414 ft 87 kts 147°
2026-04-19 17:46 51.99511 15.48206 1224 ft 97 kts 149°
2026-04-19 17:46 51.98959 15.48649 1095 ft 69 kts 185°
2026-04-19 17:47 51.98577 15.48194 699 ft 74 kts 233°
2026-04-19 17:47 51.98321 15.47537 451 ft 63 kts 251°
2026-04-19 17:47 51.98146 15.46875 258 ft 56 kts 241°
2026-04-19 17:47 51.97989 15.46422 245 ft 46 kts 244°
2026-04-19 17:48 51.97823 15.45814 329 ft 62 kts 250°
2026-04-19 17:48 51.97673 15.45157 543 ft 55 kts 252°
2026-04-19 17:48 51.97985 15.44737 556 ft 76 kts 332°
2026-04-19 17:48 51.98487 15.44309 634 ft 90 kts 330°
2026-04-19 17:49 51.99052 15.43946 792 ft 85 kts 23°
2026-04-19 17:49 51.99388 15.44815 814 ft 99 kts 64°
2026-04-19 17:49 51.99699 15.45857 852 ft 104 kts 63°
2026-04-19 17:49 52.00069 15.46904 808 ft 112 kts 56°
2026-04-19 17:50 52.00267 15.47897 1079 ft 85 kts 124°
2026-04-19 17:50 51.99738 15.48466 1107 ft 93 kts 154°
2026-04-19 17:50 51.99145 15.48953 1107 ft 90 kts 155°
2026-04-19 17:50 51.98675 15.48738 1035 ft 75 kts 233°
2026-04-19 17:51 51.98429 15.48017 648 ft 74 kts 243°
2026-04-19 17:51 51.98197 15.47311 337 ft 69 kts 243°
2026-04-19 17:51 51.97998 15.46721 246 ft 49 kts 242°
2026-04-19 17:51 51.97796 15.46097 308 ft 69 kts 249°
2026-04-19 17:52 51.97559 15.45393 469 ft 71 kts 237°
2026-04-19 17:52 51.97286 15.44764 680 ft 68 kts 233°
2026-04-19 17:52 51.96968 15.44144 814 ft 79 kts 231°
2026-04-19 17:52 51.96802 15.43380 937 ft 84 kts 309°
2026-04-19 17:53 51.97337 15.42822 950 ft 98 kts 330°
2026-04-19 17:53 51.97943 15.42261 989 ft 102 kts 330°
2026-04-19 17:53 51.98571 15.41744 1072 ft 100 kts 334°
2026-04-19 17:53 51.99147 15.41943 1221 ft 93 kts 68°
2026-04-19 17:54 51.99439 15.43009 1123 ft 110 kts 65°
2026-04-19 17:54 51.99742 15.44104 1190 ft 107 kts 66°
2026-04-19 17:54 52.00039 15.45240 1186 ft 110 kts 68°
2026-04-19 17:54 52.00342 15.46342 1265 ft 104 kts 65°
2026-04-19 17:55 52.00616 15.47388 1374 ft 97 kts 85°
2026-04-19 17:55 52.00152 15.48079 1285 ft 107 kts 159°
2026-04-19 17:55 51.99470 15.48567 1117 ft 105 kts 156°
2026-04-19 17:55 51.98811 15.48836 1019 ft 94 kts 219°
2026-04-19 17:56 51.98452 15.47944 595 ft 86 kts 242°
2026-04-19 17:56 51.98200 15.47180 320 ft 67 kts 244°
2026-04-19 17:56 51.98014 15.46596 244 ft 49 kts 243°
2026-04-19 17:56 51.97868 15.46133 250 ft 58 kts 242°
2026-04-19 17:57 51.97690 15.45604 366 ft 65 kts 242°
2026-04-19 17:57 51.97559 15.45217 474 ft 66 kts 243°
2026-04-19 17:57 51.97300 15.44516 599 ft 78 kts 238°
2026-04-19 17:57 51.97184 15.44219 668 ft 80 kts 239°
2026-04-19 17:58 51.97010 15.43364 787 ft 85 kts 285°
2026-04-19 17:58 51.97513 15.42722 769 ft 100 kts 332°
2026-04-19 17:58 51.98100 15.42132 841 ft 98 kts 326°
2026-04-19 17:58 51.98695 15.41723 953 ft 95 kts 12°
2026-04-19 17:59 51.99130 15.42601 903 ft 108 kts 62°
2026-04-19 17:59 51.99504 15.43688 837 ft 112 kts 60°
2026-04-19 17:59 51.99876 15.44798 854 ft 110 kts 62°
2026-04-19 17:59 52.00242 15.45886 835 ft 112 kts 62°
2026-04-19 18:00 52.00525 15.46999 944 ft 97 kts 96°
2026-04-19 18:00 52.00070 15.47809 925 ft 105 kts 142°
2026-04-19 18:00 51.99512 15.48602 896 ft 108 kts 129°
2026-04-19 18:00 51.98929 15.49215 965 ft 85 kts 188°
2026-04-19 18:01 51.98648 15.48570 766 ft 77 kts 245°
2026-04-19 18:01 51.98423 15.47768 506 ft 78 kts 246°
2026-04-19 18:01 51.98183 15.46970 273 ft 76 kts 243°
2026-04-19 18:01 51.97967 15.46315 245 ft 56 kts 236°
2026-04-19 18:02 51.97742 15.45674 338 ft 72 kts 242°
2026-04-19 18:02 51.97481 15.44919 506 ft 78 kts 244°
2026-04-19 18:02 51.97221 15.44114 649 ft 84 kts 240°
2026-04-19 18:02 51.96917 15.43272 797 ft 84 kts 254°
2026-04-19 18:03 51.97197 15.42507 896 ft 92 kts 328°
2026-04-19 18:03 51.97772 15.41990 971 ft 97 kts 332°
2026-04-19 18:03 51.98384 15.41489 1073 ft 96 kts 330°
2026-04-19 18:03 51.98991 15.41396 1181 ft 94 kts 36°
2026-04-19 18:04 51.99302 15.42387 1147 ft 107 kts 66°
2026-04-19 18:04 51.99624 15.43530 1075 ft 112 kts 58°
2026-04-19 18:04 51.99956 15.44632 1118 ft 108 kts 66°
2026-04-19 18:04 52.00292 15.45762 1086 ft 108 kts 63°
2026-04-19 18:05 52.00672 15.46861 996 ft 113 kts 57°
2026-04-19 18:05 52.00472 15.47846 1039 ft 107 kts 141°
2026-04-19 18:05 51.99847 15.48619 863 ft 114 kts 146°
2026-04-19 18:05 51.99422 15.49064 901 ft 100 kts 149°
2026-04-19 18:06 51.98772 15.49227 850 ft 79 kts 246°
2026-04-19 18:06 51.98592 15.48552 700 ft 81 kts 238°
2026-04-19 18:06 51.98341 15.47740 536 ft 82 kts 235°
2026-04-19 18:06 51.98166 15.47211 323 ft 73 kts 244°
2026-04-19 18:07 51.97798 15.46085 264 ft 64 kts 245°
2026-04-19 18:07 51.97591 15.45453 408 ft 66 kts 255°
2026-04-19 18:07 51.97436 15.44706 551 ft 74 kts 251°
2026-04-19 18:08 51.97217 15.43851 595 ft 93 kts 245°
2026-04-19 18:08 51.96997 15.42851 677 ft 84 kts 298°
2026-04-19 18:08 51.97474 15.42230 714 ft 98 kts 325°
2026-04-19 18:08 51.98045 15.41589 780 ft 96 kts 320°
2026-04-19 18:09 51.98563 15.41274 980 ft 83 kts 53°
2026-04-19 18:09 51.98928 15.42160 933 ft 101 kts 53°
2026-04-19 18:09 51.99367 15.43128 842 ft 112 kts 58°
2026-04-19 18:09 51.99735 15.44213 865 ft 108 kts 60°
2026-04-19 18:10 52.00115 15.45270 853 ft 110 kts 56°
2026-04-19 18:10 52.00476 15.46339 931 ft 102 kts 67°
2026-04-19 18:10 52.00708 15.47417 1028 ft 90 kts 101°
2026-04-19 18:10 52.00237 15.48002 1114 ft 98 kts 150°
2026-04-19 18:11 51.99657 15.48685 1082 ft 109 kts 141°
2026-04-19 18:11 51.99095 15.49369 1090 ft 78 kts 195°
2026-04-19 18:11 51.98756 15.48714 832 ft 85 kts 233°
2026-04-19 18:11 51.98479 15.47962 570 ft 76 kts 245°
2026-04-19 18:12 51.98270 15.47247 322 ft 64 kts 245°
2026-04-19 18:12 51.98081 15.46678 245 ft 50 kts 241°
2026-04-19 18:12 51.97923 15.46212 247 ft 56 kts 242°
2026-04-19 18:12 51.97728 15.45548 318 ft 74 kts 246°
2026-04-19 18:13 51.97527 15.44781 535 ft 72 kts 241°
2026-04-19 18:13 51.97285 15.44027 712 ft 73 kts 268°
2026-04-19 18:13 51.97651 15.43441 798 ft 86 kts 329°
2026-04-19 18:13 51.98187 15.42856 776 ft 103 kts 319°
2026-04-19 18:14 51.98770 15.42508 889 ft 92 kts 40°
2026-04-19 18:14 51.99079 15.43535 794 ft 106 kts 57°
2026-04-19 18:14 51.99468 15.44576 760 ft 111 kts 58°
2026-04-19 18:14 51.99886 15.45618 729 ft 111 kts 52°
2026-04-19 18:15 52.00348 15.46594 763 ft 106 kts 47°
2026-04-19 18:15 52.00675 15.47588 825 ft 102 kts 91°
2026-04-19 18:15 52.00352 15.48539 918 ft 98 kts 140°
2026-04-19 18:15 51.99823 15.49305 908 ft 104 kts 142°
2026-04-19 18:16 51.99249 15.50007 885 ft 84 kts 167°
2026-04-19 18:16 51.98937 15.49316 730 ft 86 kts 242°
2026-04-19 18:16 51.98626 15.48448 589 ft 90 kts 237°
2026-04-19 18:16 51.98357 15.47711 462 ft 65 kts 245°
2026-04-19 18:17 51.98159 15.47065 281 ft 60 kts 244°
2026-04-19 18:17 51.98003 15.46539 244 ft 44 kts 248°
2026-04-19 18:17 51.97846 15.46001 254 ft 68 kts 246°
2026-04-19 18:17 51.97630 15.45266 393 ft 74 kts 244°
2026-04-19 18:18 51.97369 15.44510 500 ft 84 kts 238°
2026-04-19 18:18 51.97451 15.43619 588 ft 93 kts 311°
2026-04-19 18:18 51.97983 15.43015 683 ft 95 kts 324°
2026-04-19 18:18 51.98541 15.42506 828 ft 84 kts
2026-04-19 18:19 51.98858 15.43335 802 ft 98 kts 59°
2026-04-19 18:19 51.99260 15.44260 786 ft 98 kts 46°
2026-04-19 18:19 51.99696 15.45136 738 ft 102 kts 52°
2026-04-19 18:19 52.00103 15.46010 836 ft 95 kts 54°
2026-04-19 18:20 52.00444 15.46959 848 ft 96 kts 85°
2026-04-19 18:20 52.00045 15.47795 822 ft 100 kts 146°
2026-04-19 18:20 51.99471 15.48404 883 ft 98 kts 145°
2026-04-19 18:20 51.98884 15.48736 912 ft 84 kts 212°
2026-04-19 18:21 51.98487 15.47935 579 ft 89 kts 234°
2026-04-19 18:21 51.98249 15.47193 324 ft 64 kts 243°
2026-04-19 18:21 51.98060 15.46606 243 ft 51 kts 244°
2026-04-19 18:21 51.97903 15.46109 249 ft 62 kts 242°
2026-04-19 18:22 51.97634 15.45487 365 ft 70 kts 225°
2026-04-19 18:22 51.97326 15.44848 570 ft 71 kts 235°
2026-04-19 18:22 51.97216 15.44149 787 ft 64 kts 305°
2026-04-19 18:22 51.97716 15.43814 788 ft 88 kts 335°
2026-04-19 18:23 51.98163 15.43445 738 ft 65 kts 334°
2026-04-19 18:23 51.98649 15.43246 746 ft 84 kts 23°
2026-04-19 18:23 51.99038 15.44002 791 ft 92 kts 55°
2026-04-19 18:23 51.99447 15.44890 770 ft 104 kts 50°
2026-04-19 18:24 51.99938 15.45744 817 ft 100 kts 48°
2026-04-19 18:24 52.00259 15.46726 824 ft 91 kts 84°
2026-04-19 18:24 51.99957 15.47502 839 ft 88 kts 140°
2026-04-19 18:24 51.99495 15.48256 837 ft 101 kts 128°
2026-04-19 18:25 51.98938 15.49015 803 ft 95 kts 167°
2026-04-19 18:25 51.98638 15.48431 687 ft 64 kts 241°
2026-04-19 18:25 51.98427 15.47854 507 ft 57 kts 236°
2026-04-19 18:25 51.98242 15.47316 335 ft 57 kts 243°
2026-04-19 18:26 51.98055 15.46789 259 ft 49 kts 241°
2026-04-19 18:26 51.97908 15.46359 246 ft 40 kts 243°
2026-04-19 18:26 51.97742 15.45824 247 ft 70 kts 244°
2026-04-19 18:26 51.97545 15.45154 456 ft 64 kts 242°
2026-04-19 18:27 51.97285 15.44478 562 ft 76 kts 234°
2026-04-19 18:27 51.97296 15.43717 666 ft 84 kts 319°
2026-04-19 18:27 51.97823 15.43117 676 ft 99 kts 318°
2026-04-19 18:27 51.98289 15.42354 731 ft 98 kts 319°
2026-04-19 18:28 51.98843 15.42072 764 ft 87 kts 79°
2026-04-19 18:28 51.99022 15.43129 679 ft 103 kts 66°
2026-04-19 18:28 51.99382 15.44199 617 ft 110 kts 62°
2026-04-19 18:28 51.99713 15.45306 651 ft 106 kts 59°
2026-04-19 18:29 52.00114 15.46261 683 ft 101 kts 47°
2026-04-19 18:29 52.00477 15.47208 788 ft 90 kts 85°
2026-04-19 18:29 52.00038 15.47902 793 ft 100 kts 136°
2026-04-19 18:29 51.99529 15.48621 809 ft 87 kts 150°
2026-04-19 18:30 51.99000 15.49076 859 ft 86 kts 156°
2026-04-19 18:30 51.98613 15.48521 762 ft 99 kts 244°
2026-04-19 18:30 51.98329 15.47670 507 ft 78 kts 244°
2026-04-19 18:30 51.98118 15.46922 255 ft 61 kts 245°
2026-04-19 18:31 51.97965 15.46447 246 ft 35 kts 233°
2026-04-19 18:31 51.97806 15.46305 250 ft 18 kts 227°
2026-04-19 18:31 51.97723 15.46187 250 ft 11 kts 187°
2026-04-19 18:31 51.97654 15.46245 251 ft 16 kts 144°
2026-04-19 18:32 51.97597 15.46310 256 ft 12 kts 140°
2026-04-19 18:32 51.97533 15.46393 256 ft 10 kts 141°
2026-04-19 18:32 51.97523 15.46414 256 ft 3 kts 97°
2026-04-19 18:32 51.97524 15.46444 256 ft 2 kts
2026-04-19 18:33 51.97529 15.46439 256 ft 0 kts 271°